Flag for U.S.A. Weather past 2 weeks in Wichita, Kansas, U.S.A.

Now
74 °F

Partly cloudy.


Feels Like: 76 °F
Forecast: 78 / 100 °F
Wind: 8 mph from South

Location: Wichita Mid-Continent Airport

Current Time: Jul 1, 2015 at 7:59:24 AM

Latest Report: Jul 1, 2015 at 6:53 AM


Visibility: 10 mi

Pressure: 29.79 "Hg

Humidity: 71%

Dew point: 64 °F

Location of WichitaLocation

Historic Weather in Wichita — Graph

°F

Wichita temperature yesterday

Maximum temperature yesterday: 99 °F (at 3:53 PM)
Minimum temperature yesterday: 66 °F (at 6:53 AM)
Average temperature yesterday: 83 °F

Past Weeks' High & Low Weather Summary

 TemperatureHumidityPressure
High99 °F (Jun 30, 3:53 PM)93% (Jun 17, 5:53 AM)30.10 "Hg (Jun 17, 5:53 AM)
Low65 °F (Jun 28, 5:53 AM)26% (Jun 28, 3:53 PM)29.75 "Hg (Jun 20, 5:53 PM)
Average81 °F60%29.92 "Hg
* Reported Jun 16 5:04 AM — Jul 1 5:53 AM, Wichita, Weather by CustomWeather, © 2015

Note: Actual official high and low records may vary slightly from our data, if they occured in-between our weather recording intervals... More about our weather records

Advertising

Wichita weather history for previous 24 hours

 ConditionsComfort  
Time TempWeatherWind HumidityBarometerVisibility
5:53 AM
Wed, Jul 1
73 °FPartly cloudy.9 mph71%29.79 "Hg10 mi
4:53 AM75 °FPartly cloudy.9 mph66%29.79 "Hg10 mi
3:53 AM77 °FPartly cloudy.9 mph62%29.79 "Hg10 mi
2:53 AM80 °FPassing clouds.13 mph56%29.80 "Hg10 mi
1:53 AM82 °FPassing clouds.14 mph53%29.80 "Hg10 mi
12:53 AM82 °FPartly cloudy.16 mph49%29.80 "Hg10 mi
10:53 PM
Tue, Jun 30
82 °FPartly cloudy.13 mph44%29.82 "Hg10 mi
9:53 PM81 °FBroken clouds.10 mph47%29.81 "Hg10 mi
8:53 PM84 °FBroken clouds.8 mph43%29.80 "Hg10 mi
7:53 PM90 °FScattered clouds.9 mph37%29.80 "Hg10 mi
6:53 PM95 °FScattered clouds.9 mph29%29.80 "Hg10 mi
5:53 PM95 °FBroken clouds.12 mph28%29.81 "Hg10 mi
4:53 PM99 °FBroken clouds.8 mph26%29.82 "Hg10 mi
3:53 PM99 °FScattered clouds.9 mph26%29.84 "Hg10 mi
2:53 PM98 °FScattered clouds.9 mph26%29.86 "Hg10 mi
1:53 PM97 °FScattered clouds.13 mph28%29.88 "Hg10 mi
12:53 PM96 °FScattered clouds.10 mph29%29.90 "Hg10 mi
11:53 AM94 °FPassing clouds.9 mph29%29.92 "Hg10 mi
10:53 AM90 °FPassing clouds.5 mph39%29.93 "Hg10 mi
9:53 AM84 °FPassing clouds.3 mph51%29.95 "Hg10 mi
8:53 AM79 °FBroken clouds.6 mph58%29.96 "Hg10 mi
7:53 AM73 °FPartly sunny.7 mph74%29.95 "Hg10 mi
Weather by CustomWeather, © 2015

See weather overviewHow to use our weather pages